Time,TemperatureF,DewpointF,PressureIn,WindDirection,WindDirectionDegrees,WindSpeedMPH,WindSpeedGustMPH,Humidity,HourlyPrecipIn,Conditions,Clouds,dailyrainin,SoftwareType,DateUTC
2013-05-01 00:07:00,47.2,36.0,30.31,ESE,105,0.0,0.0,65,0.00,,,0.00,weatherlink.com 1.10,2013-05-01 04:07:00,
2013-05-01 00:22:00,46.5,36.0,30.32,ESE,106,0.0,0.0,68,0.00,,,0.00,weatherlink.com 1.10,2013-05-01 04:22:00,
2013-05-01 00:37:00,45.9,36.0,30.33,ESE,105,0.0,0.0,68,0.00,,,0.00,weatherlink.com 1.10,2013-05-01 04:37:00,
2013-05-01 00:52:00,45.5,35.0,30.33,ESE,105,0.0,0.0,68,0.00,,,0.00,weatherlink.com 1.10,2013-05-01 04:52:00,
2013-05-01 01:07:00,45.1,36.0,30.33,ESE,106,0.0,0.0,70,0.00,,,0.00,weatherlink.com 1.10,2013-05-01 05:07:00,
2013-05-01 01:22:00,44.6,36.0,30.34,ESE,106,0.0,0.0,71,0.00,,,0.00,weatherlink.com 1.10,2013-05-01 05:22:00,
2013-05-01 01:37:00,44.1,36.0,30.34,ESE,105,0.0,0.0,72,0.00,,,0.00,weatherlink.com 1.10,2013-05-01 05:37:00,
2013-05-01 01:52:00,43.6,35.0,30.34,ESE,105,0.0,0.0,73,0.00,,,0.00,weatherlink.com 1.10,2013-05-01 05:52:00,
2013-05-01 02:07:00,43.3,35.0,30.34,ESE,105,0.0,0.0,73,0.00,,,0.00,weatherlink.com 1.10,2013-05-01 06:07:00,
2013-05-01 02:23:00,42.6,35.0,30.35,ESE,105,0.0,0.0,75,0.00,,,0.00,weatherlink.com 1.10,2013-05-01 06:23:00,
2013-05-01 02:38:00,42.0,35.0,30.35,ESE,106,0.0,0.0,77,0.00,,,0.00,weatherlink.com 1.10,2013-05-01 06:38:00,
2013-05-01 02:53:00,41.7,34.0,30.35,ESE,105,0.0,0.0,75,0.00,,,0.00,weatherlink.com 1.10,2013-05-01 06:53:00,
2013-05-01 03:08:00,41.1,34.0,30.35,ESE,106,0.0,0.0,77,0.00,,,0.00,weatherlink.com 1.10,2013-05-01 07:08:00,
2013-05-01 03:23:00,40.6,34.0,30.36,ESE,106,0.0,0.0,77,0.00,,,0.00,weatherlink.com 1.10,2013-05-01 07:23:00,
2013-05-01 03:38:00,40.1,34.0,30.36,ESE,106,0.0,0.0,80,0.00,,,0.00,weatherlink.com 1.10,2013-05-01 07:38:00,
2013-05-01 03:53:00,39.6,34.0,30.36,ESE,105,0.0,0.0,81,0.00,,,0.00,weatherlink.com 1.10,2013-05-01 07:53:00,
2013-05-01 04:08:00,39.3,34.0,30.36,ESE,105,0.0,0.0,82,0.00,,,0.00,weatherlink.com 1.10,2013-05-01 08:08:00,
2013-05-01 04:23:00,38.9,34.0,30.37,ESE,106,0.0,0.0,81,0.00,,,0.00,weatherlink.com 1.10,2013-05-01 08:23:00,
2013-05-01 04:38:00,38.5,34.0,30.37,ESE,105,0.0,0.0,83,0.00,,,0.00,weatherlink.com 1.10,2013-05-01 08:38:00,
2013-05-01 04:53:00,38.4,34.0,30.37,ESE,105,0.0,0.0,85,0.00,,,0.00,weatherlink.com 1.10,2013-05-01 08:53:00,
2013-05-01 05:08:00,38.2,34.0,30.37,ESE,106,0.0,0.0,85,0.00,,,0.00,weatherlink.com 1.10,2013-05-01 09:08:00,
2013-05-01 05:23:00,38.0,34.0,30.38,ESE,106,0.0,0.0,86,0.00,,,0.00,weatherlink.com 1.10,2013-05-01 09:23:00,
2013-05-01 05:38:00,37.6,34.0,30.39,ESE,105,0.0,0.0,87,0.00,,,0.00,weatherlink.com 1.10,2013-05-01 09:38:00,
2013-05-01 05:53:00,37.3,34.0,30.39,ESE,105,0.0,0.0,88,0.00,,,0.00,weatherlink.com 1.10,2013-05-01 09:53:00,
2013-05-01 06:08:00,37.2,34.0,30.39,ESE,105,0.0,0.0,89,0.00,,,0.00,weatherlink.com 1.10,2013-05-01 10:08:00,
2013-05-01 06:23:00,37.3,35.0,30.40,ESE,105,0.0,0.0,90,0.00,,,0.00,weatherlink.com 1.10,2013-05-01 10:23:00,
2013-05-01 06:38:00,37.5,35.0,30.41,ESE,105,0.0,0.0,90,0.00,,,0.00,weatherlink.com 1.10,2013-05-01 10:38:00,
2013-05-01 06:53:00,38.2,36.0,30.41,ESE,106,0.0,0.0,91,0.00,,,0.00,weatherlink.com 1.10,2013-05-01 10:53:00,
2013-05-01 07:08:00,38.9,37.0,30.42,ESE,105,0.0,0.0,91,0.00,,,0.00,weatherlink.com 1.10,2013-05-01 11:08:00,
2013-05-01 07:23:00,40.0,38.0,30.42,ESE,105,0.0,0.0,91,0.00,,,0.00,weatherlink.com 1.10,2013-05-01 11:23:00,
2013-05-01 07:38:00,43.1,38.0,30.43,ESE,105,0.0,1.0,81,0.00,,,0.00,weatherlink.com 1.10,2013-05-01 11:38:00,
2013-05-01 07:53:00,46.4,38.0,30.43,ESE,108,0.0,1.0,72,0.00,,,0.00,weatherlink.com 1.10,2013-05-01 11:53:00,
2013-05-01 08:08:00,48.8,38.0,30.44,ESE,108,0.0,1.0,66,0.00,,,0.00,weatherlink.com 1.10,2013-05-01 12:08:00,
2013-05-01 08:23:00,53.5,37.0,30.45,East,99,0.0,1.0,53,0.00,,,0.00,weatherlink.com 1.10,2013-05-01 12:23:00,
2013-05-01 08:39:00,55.5,37.0,30.44,SSW,207,1.0,1.0,50,0.00,,,0.00,weatherlink.com 1.10,2013-05-01 12:39:00,
2013-05-01 08:54:00,57.7,38.0,30.45,WSW,242,0.0,1.0,49,0.00,,,0.00,weatherlink.com 1.10,2013-05-01 12:54:00,
2013-05-01 09:09:00,59.3,36.0,30.45,SE,134,0.0,3.0,42,0.00,,,0.00,weatherlink.com 1.10,2013-05-01 13:09:00,
2013-05-01 09:24:00,60.6,35.0,30.44,SSW,195,0.0,1.0,39,0.00,,,0.00,weatherlink.com 1.10,2013-05-01 13:24:00,
2013-05-01 09:39:00,62.0,35.0,30.44,WSW,248,0.0,2.0,36,0.00,,,0.00,weatherlink.com 1.10,2013-05-01 13:39:00,
2013-05-01 09:54:00,63.0,31.0,30.45,SE,133,0.0,2.0,30,0.00,,,0.00,weatherlink.com 1.10,2013-05-01 13:54:00,
2013-05-01 10:09:00,65.0,34.0,30.44,WNW,288,0.0,1.0,31,0.00,,,0.00,weatherlink.com 1.10,2013-05-01 14:09:00,
2013-05-01 10:24:00,67.0,34.0,30.44,ENE,62,0.0,1.0,30,0.00,,,0.00,weatherlink.com 1.10,2013-05-01 14:24:00,
2013-05-01 10:39:00,67.7,32.0,30.44,WNW,288,0.0,2.0,27,0.00,,,0.00,weatherlink.com 1.10,2013-05-01 14:39:00,
2013-05-01 10:54:00,68.9,32.0,30.44,WSW,257,1.0,3.0,25,0.00,,,0.00,weatherlink.com 1.10,2013-05-01 14:54:00,
2013-05-01 11:09:00,70.6,32.0,30.43,WSW,256,0.0,1.0,24,0.00,,,0.00,weatherlink.com 1.10,2013-05-01 15:09:00,
2013-05-01 11:24:00,70.7,32.0,30.43,East,79,1.0,4.0,24,0.00,,,0.00,weatherlink.com 1.10,2013-05-01 15:24:00,
2013-05-01 11:39:00,71.6,32.0,30.42,ESE,113,0.0,2.0,23,0.00,,,0.00,weatherlink.com 1.10,2013-05-01 15:39:00,
2013-05-01 11:54:00,72.5,36.0,30.41,ESE,122,0.0,1.0,26,0.00,,,0.00,weatherlink.com 1.10,2013-05-01 15:54:00,
2013-05-01 12:09:00,73.1,33.0,30.41,South,191,0.0,2.0,23,0.00,,,0.00,weatherlink.com 1.10,2013-05-01 16:09:00,
2013-05-01 12:24:00,73.1,33.0,30.40,South,187,0.0,4.0,23,0.00,,,0.00,weatherlink.com 1.10,2013-05-01 16:24:00,
2013-05-01 12:39:00,73.8,35.0,30.40,WNW,283,0.0,2.0,24,0.00,,,0.00,weatherlink.com 1.10,2013-05-01 16:39:00,
2013-05-01 12:54:00,75.0,35.0,30.39,WSW,245,0.0,5.0,23,0.00,,,0.00,weatherlink.com 1.10,2013-05-01 16:54:00,
2013-05-01 13:09:00,75.3,32.0,30.39,SE,130,0.0,4.0,20,0.00,,,0.00,weatherlink.com 1.10,2013-05-01 17:09:00,
2013-05-01 13:24:00,75.7,32.0,30.39,East,86,0.0,4.0,20,0.00,,,0.00,weatherlink.com 1.10,2013-05-01 17:24:00,
2013-05-01 13:39:00,76.6,34.0,30.39,WSW,250,0.0,3.0,21,0.00,,,0.00,weatherlink.com 1.10,2013-05-01 17:39:00,
2013-05-01 13:55:00,77.4,32.0,30.38,West,281,0.0,4.0,19,0.00,,,0.00,weatherlink.com 1.10,2013-05-01 17:55:00,
2013-05-01 14:10:00,77.1,32.0,30.37,West,281,5.0,5.0,19,0.00,,,0.00,weatherlink.com 1.10,2013-05-01 18:10:00,
2013-05-01 14:25:00,77.1,29.0,30.37,WNW,288,0.0,3.0,17,0.00,,,0.00,weatherlink.com 1.10,2013-05-01 18:25:00,
2013-05-01 14:40:00,77.4,31.0,30.37,West,274,0.0,3.0,18,0.00,,,0.00,weatherlink.com 1.10,2013-05-01 18:40:00,
2013-05-01 14:55:00,78.1,31.0,30.37,SSE,167,0.0,5.0,18,0.00,,,0.00,weatherlink.com 1.10,2013-05-01 18:55:00,
2013-05-01 15:10:00,78.2,30.0,30.36,ESE,119,1.0,4.0,17,0.00,,,0.00,weatherlink.com 1.10,2013-05-01 19:10:00,
2013-05-01 15:25:00,78.4,30.0,30.36,ENE,76,1.0,2.0,17,0.00,,,0.00,weatherlink.com 1.10,2013-05-01 19:25:00,
2013-05-01 15:40:00,79.6,31.0,30.35,WNW,293,2.0,6.0,17,0.00,,,0.00,weatherlink.com 1.10,2013-05-01 19:40:00,
2013-05-01 15:55:00,78.4,31.0,30.35,ESE,123,0.0,8.0,18,0.00,,,0.00,weatherlink.com 1.10,2013-05-01 19:55:00,
2013-05-01 16:10:00,78.3,30.0,30.35,WNW,300,1.0,2.0,17,0.00,,,0.00,weatherlink.com 1.10,2013-05-01 20:10:00,
2013-05-01 16:25:00,78.3,34.0,30.35,SE,126,1.0,2.0,20,0.00,,,0.00,weatherlink.com 1.10,2013-05-01 20:25:00,
2013-05-01 16:40:00,78.1,33.0,30.35,WSW,238,1.0,5.0,19,0.00,,,0.00,weatherlink.com 1.10,2013-05-01 20:40:00,
2013-05-01 16:55:00,77.9,34.0,30.35,SW,226,0.0,5.0,20,0.00,,,0.00,weatherlink.com 1.10,2013-05-01 20:55:00,
2013-05-01 17:10:00,77.9,34.0,30.36,SE,137,1.0,4.0,20,0.00,,,0.00,weatherlink.com 1.10,2013-05-01 21:10:00,
2013-05-01 17:25:00,78.4,31.0,30.36,East,96,4.0,4.0,18,0.00,,,0.00,weatherlink.com 1.10,2013-05-01 21:25:00,
2013-05-01 17:40:00,77.6,35.0,30.36,SSW,195,0.0,4.0,21,0.00,,,0.00,weatherlink.com 1.10,2013-05-01 21:40:00,
2013-05-01 17:55:00,78.9,32.0,30.36,ESE,115,0.0,2.0,18,0.00,,,0.00,weatherlink.com 1.10,2013-05-01 21:55:00,
2013-05-01 18:10:00,78.2,33.0,30.36,SSW,198,2.0,2.0,19,0.00,,,0.00,weatherlink.com 1.10,2013-05-01 22:10:00,
2013-05-01 18:25:00,75.5,34.0,30.36,ESE,110,0.0,1.0,22,0.00,,,0.00,weatherlink.com 1.10,2013-05-01 22:25:00,
2013-05-01 18:40:00,72.5,38.0,30.37,WNW,287,0.0,2.0,28,0.00,,,0.00,weatherlink.com 1.10,2013-05-01 22:40:00,
2013-05-01 18:55:00,70.6,40.0,30.38,West,264,1.0,3.0,33,0.00,,,0.00,weatherlink.com 1.10,2013-05-01 22:55:00,
2013-05-01 19:10:00,69.0,40.0,30.38,ESE,105,0.0,4.0,35,0.00,,,0.00,weatherlink.com 1.10,2013-05-01 23:10:00,
2013-05-01 19:25:00,67.8,40.0,30.38,ESE,122,0.0,4.0,36,0.00,,,0.00,weatherlink.com 1.10,2013-05-01 23:25:00,
2013-05-01 19:40:00,66.5,40.0,30.39,East,99,0.0,4.0,38,0.00,,,0.00,weatherlink.com 1.10,2013-05-01 23:40:00,
2013-05-01 19:55:00,65.4,40.0,30.39,ESE,109,0.0,4.0,39,0.00,,,0.00,weatherlink.com 1.10,2013-05-01 23:55:00,
2013-05-01 20:10:00,63.7,39.0,30.40,SE,130,1.0,1.0,41,0.00,,,0.00,weatherlink.com 1.10,2013-05-02 00:10:00,
2013-05-01 20:25:00,62.1,40.0,30.41,East,96,0.0,1.0,45,0.00,,,0.00,weatherlink.com 1.10,2013-05-02 00:25:00,
2013-05-01 20:40:00,60.1,41.0,30.41,East,96,0.0,0.0,49,0.00,,,0.00,weatherlink.com 1.10,2013-05-02 00:40:00,
2013-05-01 20:55:00,58.5,41.0,30.42,East,96,0.0,0.0,53,0.00,,,0.00,weatherlink.com 1.10,2013-05-02 00:55:00,
2013-05-01 21:10:00,57.9,42.0,30.43,WNW,299,0.0,1.0,55,0.00,,,0.00,weatherlink.com 1.10,2013-05-02 01:10:00,
2013-05-01 21:25:00,56.7,42.0,30.43,WNW,299,0.0,0.0,59,0.00,,,0.00,weatherlink.com 1.10,2013-05-02 01:25:00,
2013-05-01 21:40:00,55.1,43.0,30.43,WNW,299,0.0,0.0,63,0.00,,,0.00,weatherlink.com 1.10,2013-05-02 01:40:00,
2013-05-01 21:55:00,53.8,43.0,30.44,WNW,299,0.0,0.0,67,0.00,,,0.00,weatherlink.com 1.10,2013-05-02 01:55:00,
2013-05-01 22:10:00,53.0,43.0,30.45,WNW,299,0.0,0.0,68,0.00,,,0.00,weatherlink.com 1.10,2013-05-02 02:10:00,
2013-05-01 22:25:00,52.0,43.0,30.45,WNW,299,0.0,0.0,71,0.00,,,0.00,weatherlink.com 1.10,2013-05-02 02:25:00,
2013-05-01 22:40:00,51.4,43.0,30.45,WNW,300,0.0,0.0,73,0.00,,,0.00,weatherlink.com 1.10,2013-05-02 02:40:00,
2013-05-01 22:55:00,50.6,43.0,30.45,WNW,300,0.0,0.0,75,0.00,,,0.00,weatherlink.com 1.10,2013-05-02 02:55:00,
2013-05-01 23:10:00,49.9,42.0,30.45,WNW,299,0.0,0.0,75,0.00,,,0.00,weatherlink.com 1.10,2013-05-02 03:10:00,
2013-05-01 23:25:00,49.4,42.0,30.45,WNW,299,0.0,0.0,77,0.00,,,0.00,weatherlink.com 1.10,2013-05-02 03:25:00,
2013-05-01 23:40:00,49.8,43.0,30.45,ENE,65,0.0,0.0,77,0.00,,,0.00,weatherlink.com 1.10,2013-05-02 03:40:00,
2013-05-01 23:55:00,50.8,43.0,30.45,East,87,0.0,0.0,75,0.00,,,0.00,weatherlink.com 1.10,2013-05-02 03:55:00,